COSMOS 252 DEB, 3561

Orbit data source: Space-Track

COSMOS 252 DEB, 3561 is space debris in LEO originally from a launch on Fri, 01 Nov 1968 UTC launched from the Tyuratam Missile And Space Complex (TTMTR). Debris objects in space refer to the collection of defunct objects orbiting the Earth. Examples of debris include non-operational satellites, rocket bodies, and fragments generated from explosions, collisions, or faulty payload assembly.

Loading next visibility...
Identifier
3561, 1968-097P
Orbit
LEO
Country
Flag of CISCIS
Related business
Manufacturer
Unknown
Mission
Spacecraft
Bus & Motor
Unknown
Mass
Unknown
Launch date (UTC)
1968-11-01 (57 years ago)
Launch vehicle
Unknown
Launch site
Tyuratam Missile And Space Complex (TTMTR)
Object type
Payload
Rocket body
Debris
Shape & HBR
Unknown shape, 0.4 m
Radar Cross Section
Medium (>0.1 m² and <1 m²)

Expand to show TLE details & history
Last TLE update: 14 hours ago

TLE from 14 hours ago
0 COSMOS 252 DEB
1 03561U 68097P   26034.64164039  .00010301  00000-0  16524-2 0  9998
2 03561  62.2694  87.8756 0357307 278.3328  77.7378 14.37455595822015
Epoch: 2026-02-03T15:23Z
TLE epoch observation values (Epoch: 2026-02-03T15:23:57.729Z)
Latitude
-0.00008°
Longitude
83.06537°
Altitude
723.243 km
Speed
7.518 km/s
True Right ascension
05h 51m 30s
True Declination
0° 00' 00"
Sunlit
Object was in full shadow at epoch
Visualization orbit readout
Latitude
Unknown
Longitude
Unknown
Altitude
Unknown
Speed
Unknown
Apparent Right ascension
Unknown
Apparent Declination
Unknown
Sunlit
N/A
Visualization observer readout
Local Sidereal Time
07:44:08
Azimuth
Unknown
Elevation
Unknown
Doppler factor
Unknown
Orbital elements
Apogee altitude
1,021.099 km
Perigee altitude
510.581 km
Semi-major axis
7,143.977 km
Eccentricity
0.03573
Inclination
62.2694°
RAAN
87.8756°
Arg. of periapsis
278.3328°
True anomaly
81.77378°
Mean anomaly
77.7378°
Eccentric anomaly
79.75236°
Mean motion
3.59446 °/min
Orbital period
100.15 mins
BSTAR
0.0016524

Documentation

Showing up to 5 results
|